Year,Month,Day,Hour,Minute,Value (Times are PST for temperature in C)
2017,08,27,00,00,16.40
2017,08,27,00,01,16.40
2017,08,27,00,02,16.40
2017,08,27,00,03,16.40
2017,08,27,00,04,16.40
2017,08,27,00,05,16.50
2017,08,27,00,06,16.50
2017,08,27,00,07,16.60
2017,08,27,00,08,16.60
2017,08,27,00,09,16.60
2017,08,27,00,10,16.60
2017,08,27,00,11,16.70
2017,08,27,00,12,16.70
2017,08,27,00,13,16.70
2017,08,27,00,14,16.70
2017,08,27,00,15,16.70
2017,08,27,00,16,16.70
2017,08,27,00,17,16.70
2017,08,27,00,18,16.70
2017,08,27,00,19,16.70
2017,08,27,00,20,16.60
2017,08,27,00,21,16.60
2017,08,27,00,22,16.60
2017,08,27,00,23,16.60
2017,08,27,00,24,16.50
2017,08,27,00,25,16.50
2017,08,27,00,26,16.40
2017,08,27,00,27,16.40
2017,08,27,00,28,16.40
2017,08,27,00,29,16.40
2017,08,27,00,30,16.40
2017,08,27,00,31,16.40
2017,08,27,00,32,16.40
2017,08,27,00,33,16.40
2017,08,27,00,34,16.40
2017,08,27,00,35,16.40
2017,08,27,00,36,16.40
2017,08,27,00,37,16.40
2017,08,27,00,38,16.40
2017,08,27,00,39,16.40
2017,08,27,00,40,16.40
2017,08,27,00,41,16.30
2017,08,27,00,42,16.30
2017,08,27,00,43,16.30
2017,08,27,00,44,16.30
2017,08,27,00,45,16.30
2017,08,27,00,46,16.30
2017,08,27,00,47,16.30
2017,08,27,00,48,16.40
2017,08,27,00,49,16.40
2017,08,27,00,50,16.40
2017,08,27,00,51,16.40
2017,08,27,00,52,16.40
2017,08,27,00,53,16.40
2017,08,27,00,54,16.50
2017,08,27,00,55,16.50
2017,08,27,00,56,16.50
2017,08,27,00,57,16.50
2017,08,27,00,58,16.50
2017,08,27,00,59,16.60
2017,08,27,01,00,16.60
2017,08,27,01,01,16.60
2017,08,27,01,02,16.60
2017,08,27,01,03,16.60
2017,08,27,01,04,16.60
2017,08,27,01,05,16.60
2017,08,27,01,06,16.60
2017,08,27,01,07,16.60
2017,08,27,01,08,16.60
2017,08,27,01,09,16.60
2017,08,27,01,10,16.60
2017,08,27,01,11,16.60
2017,08,27,01,12,16.60
2017,08,27,01,13,16.70
2017,08,27,01,14,16.70
2017,08,27,01,15,16.70
2017,08,27,01,16,16.80
2017,08,27,01,17,16.80
2017,08,27,01,18,16.90
2017,08,27,01,19,16.90
2017,08,27,01,20,16.90
2017,08,27,01,21,16.90
2017,08,27,01,22,16.90
2017,08,27,01,23,16.90
2017,08,27,01,24,16.80
2017,08,27,01,25,16.80
2017,08,27,01,26,16.80
2017,08,27,01,27,16.70
2017,08,27,01,28,16.70
2017,08,27,01,29,16.70
2017,08,27,01,30,16.70
2017,08,27,01,31,16.60
2017,08,27,01,32,16.60
2017,08,27,01,33,16.60
2017,08,27,01,34,16.60
2017,08,27,01,35,16.50
2017,08,27,01,36,16.50
2017,08,27,01,37,16.40
2017,08,27,01,38,16.40
2017,08,27,01,39,16.40
2017,08,27,01,40,16.40
2017,08,27,01,41,16.30
2017,08,27,01,42,16.30
2017,08,27,01,43,16.30
2017,08,27,01,44,16.30
2017,08,27,01,45,16.30
2017,08,27,01,46,16.30
2017,08,27,01,47,16.20
2017,08,27,01,48,16.20
2017,08,27,01,49,16.20
2017,08,27,01,50,16.20
2017,08,27,01,51,16.20
2017,08,27,01,52,16.20
2017,08,27,01,53,16.20
2017,08,27,01,54,16.20
2017,08,27,01,55,16.20
2017,08,27,01,56,16.10
2017,08,27,01,57,16.10
2017,08,27,01,58,16.10
2017,08,27,01,59,16.10
2017,08,27,02,00,16.10
2017,08,27,02,01,16.10
2017,08,27,02,02,16.10
2017,08,27,02,03,16.10
2017,08,27,02,04,16.10
2017,08,27,02,05,16.10
2017,08,27,02,06,16.10
2017,08,27,02,07,16.10
2017,08,27,02,08,16.10
2017,08,27,02,09,16.10
2017,08,27,02,10,16.10
2017,08,27,02,11,16.20
2017,08,27,02,12,16.20
2017,08,27,02,13,16.20
2017,08,27,02,14,16.20
2017,08,27,02,15,16.20
2017,08,27,02,16,16.20
2017,08,27,02,17,16.20
2017,08,27,02,18,16.20
2017,08,27,02,19,16.20
2017,08,27,02,20,16.20
2017,08,27,02,21,16.20
2017,08,27,02,22,16.20
2017,08,27,02,23,16.20
2017,08,27,02,24,16.20
2017,08,27,02,25,16.20
2017,08,27,02,26,16.20
2017,08,27,02,27,16.20
2017,08,27,02,28,16.20
2017,08,27,02,29,16.20
2017,08,27,02,30,16.20
2017,08,27,02,31,16.20
2017,08,27,02,32,16.20
2017,08,27,02,33,16.20
2017,08,27,02,34,16.20
2017,08,27,02,35,16.20
2017,08,27,02,36,16.20
2017,08,27,02,37,16.20
2017,08,27,02,38,16.20
2017,08,27,02,39,16.20
2017,08,27,02,40,16.20
2017,08,27,02,41,16.20
2017,08,27,02,42,16.20
2017,08,27,02,43,16.20
2017,08,27,02,44,16.20
2017,08,27,02,45,16.20
2017,08,27,02,46,16.20
2017,08,27,02,47,16.20
2017,08,27,02,48,16.10
2017,08,27,02,49,16.10
2017,08,27,02,50,16.10
2017,08,27,02,51,16.10
2017,08,27,02,52,16.10
2017,08,27,02,53,16.10
2017,08,27,02,54,16.10
2017,08,27,02,55,16.10
2017,08,27,02,56,16.10
2017,08,27,02,57,16.00
2017,08,27,02,58,16.00
2017,08,27,02,59,16.00
2017,08,27,03,00,16.00
2017,08,27,03,01,16.00
2017,08,27,03,02,16.00
2017,08,27,03,03,16.00
2017,08,27,03,04,16.10
2017,08,27,03,05,16.10
2017,08,27,03,06,16.10
2017,08,27,03,07,16.20
2017,08,27,03,08,16.20
2017,08,27,03,09,16.20
2017,08,27,03,10,16.20
2017,08,27,03,11,16.20
2017,08,27,03,12,16.20
2017,08,27,03,13,16.20
2017,08,27,03,14,16.20
2017,08,27,03,15,16.10
2017,08,27,03,16,16.10
2017,08,27,03,17,16.10
2017,08,27,03,18,16.00
2017,08,27,03,19,16.00
2017,08,27,03,20,16.00
2017,08,27,03,21,16.00
2017,08,27,03,22,16.00
2017,08,27,03,23,16.00
2017,08,27,03,24,16.00
2017,08,27,03,25,16.00
2017,08,27,03,26,16.00
2017,08,27,03,27,16.00
2017,08,27,03,28,16.00
2017,08,27,03,29,16.10
2017,08,27,03,30,16.10
2017,08,27,03,31,16.00
2017,08,27,03,32,16.00
2017,08,27,03,33,16.00
2017,08,27,03,34,16.00
2017,08,27,03,35,16.00
2017,08,27,03,36,16.00
2017,08,27,03,37,16.00
2017,08,27,03,38,16.00
2017,08,27,03,39,16.00
2017,08,27,03,40,16.00
2017,08,27,03,41,16.10
2017,08,27,03,42,16.10
2017,08,27,03,43,16.10
2017,08,27,03,44,16.10
2017,08,27,03,45,16.10
2017,08,27,03,46,16.10
2017,08,27,03,47,16.10
2017,08,27,03,48,16.10
2017,08,27,03,49,16.10
2017,08,27,03,50,16.10
2017,08,27,03,51,16.10
2017,08,27,03,52,16.10
2017,08,27,03,53,16.10
2017,08,27,03,54,16.10
2017,08,27,03,55,16.10
2017,08,27,03,56,16.10
2017,08,27,03,57,16.10
2017,08,27,03,58,16.10
2017,08,27,03,59,16.10
2017,08,27,04,00,16.10
2017,08,27,04,01,16.10
2017,08,27,04,02,16.10
2017,08,27,04,03,16.00
2017,08,27,04,04,16.00
2017,08,27,04,05,16.00
2017,08,27,04,06,16.00
2017,08,27,04,07,15.90
2017,08,27,04,08,15.90
2017,08,27,04,09,15.90
2017,08,27,04,10,15.90
2017,08,27,04,11,15.90
2017,08,27,04,12,15.90
2017,08,27,04,13,15.90
2017,08,27,04,14,15.90
2017,08,27,04,15,15.90
2017,08,27,04,16,15.90
2017,08,27,04,17,15.90
2017,08,27,04,18,15.90
2017,08,27,04,19,15.90
2017,08,27,04,20,15.80
2017,08,27,04,21,15.80
2017,08,27,04,22,15.80
2017,08,27,04,23,15.80
2017,08,27,04,24,15.80
2017,08,27,04,25,15.80
2017,08,27,04,26,15.80
2017,08,27,04,27,15.80
2017,08,27,04,28,15.80
2017,08,27,04,29,15.80
2017,08,27,04,30,15.80
2017,08,27,04,31,15.80
2017,08,27,04,32,15.80
2017,08,27,04,33,15.80
2017,08,27,04,34,15.80
2017,08,27,04,35,15.70
2017,08,27,04,36,15.70
2017,08,27,04,37,15.70
2017,08,27,04,38,15.70
2017,08,27,04,39,15.70
2017,08,27,04,40,15.70
2017,08,27,04,41,15.70
2017,08,27,04,42,15.70
2017,08,27,04,43,15.70
2017,08,27,04,44,15.70
2017,08,27,04,45,15.60
2017,08,27,04,46,15.60
2017,08,27,04,47,15.60
2017,08,27,04,48,15.60
2017,08,27,04,49,15.60
2017,08,27,04,50,15.60
2017,08,27,04,51,15.60
2017,08,27,04,52,15.60
2017,08,27,04,53,15.60
2017,08,27,04,54,15.60
2017,08,27,04,55,15.60
2017,08,27,04,56,15.60
2017,08,27,04,57,15.60
2017,08,27,04,58,15.60
2017,08,27,04,59,15.60
2017,08,27,05,00,15.60
2017,08,27,05,01,15.60
2017,08,27,05,02,15.60
2017,08,27,05,03,15.60
2017,08,27,05,04,15.60
2017,08,27,05,05,15.60
2017,08,27,05,06,15.60
2017,08,27,05,07,15.60
2017,08,27,05,08,15.60
2017,08,27,05,09,15.60
2017,08,27,05,10,15.60
2017,08,27,05,11,15.70
2017,08,27,05,12,15.70
2017,08,27,05,13,15.70
2017,08,27,05,14,15.70
2017,08,27,05,15,15.70
2017,08,27,05,16,15.70
2017,08,27,05,17,15.70
2017,08,27,05,18,15.70
2017,08,27,05,19,15.70
2017,08,27,05,20,15.70
2017,08,27,05,21,15.60
2017,08,27,05,22,15.60
2017,08,27,05,23,15.60
2017,08,27,05,24,15.60
2017,08,27,05,25,15.60
2017,08,27,05,26,15.60
2017,08,27,05,27,15.60
2017,08,27,05,28,15.60
2017,08,27,05,29,15.60
2017,08,27,05,30,15.60
2017,08,27,05,31,15.60
2017,08,27,05,32,15.60
2017,08,27,05,33,15.60
2017,08,27,05,34,15.60
2017,08,27,05,35,15.50
2017,08,27,05,36,15.50
2017,08,27,05,37,15.50
2017,08,27,05,38,15.50
2017,08,27,05,39,15.40
2017,08,27,05,40,15.40
2017,08,27,05,41,15.40
2017,08,27,05,42,15.40
2017,08,27,05,43,15.40
2017,08,27,05,44,15.40
2017,08,27,05,45,15.40
2017,08,27,05,46,15.40
2017,08,27,05,47,15.40
2017,08,27,05,48,15.40
2017,08,27,05,49,15.40
2017,08,27,05,50,15.40
2017,08,27,05,51,15.40
2017,08,27,05,52,15.40
2017,08,27,05,53,15.40
2017,08,27,05,54,15.40
2017,08,27,05,55,15.50
2017,08,27,05,56,15.50
2017,08,27,05,57,15.50
2017,08,27,05,58,15.50
2017,08,27,05,59,15.50
2017,08,27,06,00,15.60
2017,08,27,06,01,15.60
2017,08,27,06,02,15.60
2017,08,27,06,03,15.60
2017,08,27,06,04,15.60
2017,08,27,06,05,15.60
2017,08,27,06,06,15.60
2017,08,27,06,07,15.60
2017,08,27,06,08,15.60
2017,08,27,06,09,15.60
2017,08,27,06,10,15.60
2017,08,27,06,11,15.50
2017,08,27,06,12,15.50
2017,08,27,06,13,15.50
2017,08,27,06,14,15.50
2017,08,27,06,15,15.40
2017,08,27,06,16,15.40
2017,08,27,06,17,15.40
2017,08,27,06,18,15.40
2017,08,27,06,19,15.40
2017,08,27,06,20,15.30
2017,08,27,06,21,15.30
2017,08,27,06,22,15.30
2017,08,27,06,23,15.30
2017,08,27,06,24,15.30
2017,08,27,06,25,15.30
2017,08,27,06,26,15.30
2017,08,27,06,27,15.30
2017,08,27,06,28,15.30
2017,08,27,06,29,15.30
2017,08,27,06,30,15.30
2017,08,27,06,31,15.30
2017,08,27,06,32,15.30
2017,08,27,06,33,15.20
2017,08,27,06,34,15.20
2017,08,27,06,35,15.20
2017,08,27,06,36,15.20
2017,08,27,06,37,15.20
2017,08,27,06,38,15.20
2017,08,27,06,39,15.20
2017,08,27,06,40,15.20
2017,08,27,06,41,15.20
2017,08,27,06,42,15.20
2017,08,27,06,43,15.20
2017,08,27,06,44,15.20
2017,08,27,06,45,15.20
2017,08,27,06,46,15.20
2017,08,27,06,47,15.20
2017,08,27,06,48,15.20
2017,08,27,06,49,15.20
2017,08,27,06,50,15.20
2017,08,27,06,51,15.20
2017,08,27,06,52,15.20
2017,08,27,06,53,15.20
2017,08,27,06,54,15.30
2017,08,27,06,55,15.30
2017,08,27,06,56,15.30
2017,08,27,06,57,15.30
2017,08,27,06,58,15.30
2017,08,27,06,59,15.30
2017,08,27,07,00,15.30
2017,08,27,07,01,15.40
2017,08,27,07,02,15.40
2017,08,27,07,03,15.40
2017,08,27,07,04,15.40
2017,08,27,07,05,15.40
2017,08,27,07,06,15.40
2017,08,27,07,07,15.40
2017,08,27,07,08,15.40
2017,08,27,07,09,15.40
2017,08,27,07,10,15.40
2017,08,27,07,11,15.40
2017,08,27,07,12,15.40
2017,08,27,07,13,15.40
2017,08,27,07,14,15.40
2017,08,27,07,15,15.40
2017,08,27,07,16,15.40
2017,08,27,07,17,15.40
2017,08,27,07,18,15.40
2017,08,27,07,19,15.40
2017,08,27,07,20,15.40
2017,08,27,07,21,15.40
2017,08,27,07,22,15.40
2017,08,27,07,23,15.40
2017,08,27,07,24,15.40
2017,08,27,07,25,15.50
2017,08,27,07,26,15.50
2017,08,27,07,27,15.50
2017,08,27,07,28,15.50
2017,08,27,07,29,15.60
2017,08,27,07,30,15.60
2017,08,27,07,31,15.60
2017,08,27,07,32,15.70
2017,08,27,07,33,15.70
2017,08,27,07,34,15.80
2017,08,27,07,35,15.80
2017,08,27,07,36,15.80
2017,08,27,07,37,15.90
2017,08,27,07,38,15.90
2017,08,27,07,39,16.00
2017,08,27,07,40,16.00
2017,08,27,07,41,16.10
2017,08,27,07,42,16.10
2017,08,27,07,43,16.20
2017,08,27,07,44,16.20
2017,08,27,07,45,16.30
2017,08,27,07,46,16.30
2017,08,27,07,47,16.30
2017,08,27,07,48,16.40
2017,08,27,07,49,16.40
2017,08,27,07,50,16.40
2017,08,27,07,51,16.50
2017,08,27,07,52,16.50
2017,08,27,07,53,16.60
2017,08,27,07,54,16.70
2017,08,27,07,55,16.70
2017,08,27,07,56,16.80
2017,08,27,07,57,16.90
2017,08,27,07,58,16.90
2017,08,27,07,59,17.00
2017,08,27,08,00,17.10
2017,08,27,08,01,17.10
2017,08,27,08,02,17.20
2017,08,27,08,03,17.20
2017,08,27,08,04,17.20
2017,08,27,08,05,17.30
2017,08,27,08,06,17.30
2017,08,27,08,07,17.30
2017,08,27,08,08,17.30
2017,08,27,08,09,17.40
2017,08,27,08,10,17.40
2017,08,27,08,11,17.50
2017,08,27,08,12,17.50
2017,08,27,08,13,17.60
2017,08,27,08,14,17.60
2017,08,27,08,15,17.60
2017,08,27,08,16,17.70
2017,08,27,08,17,17.70
2017,08,27,08,18,17.60
2017,08,27,08,19,17.50
2017,08,27,08,20,17.40
2017,08,27,08,21,17.30
2017,08,27,08,22,17.20
2017,08,27,08,23,17.10
2017,08,27,08,24,17.00
2017,08,27,08,25,16.90
2017,08,27,08,26,16.80
2017,08,27,08,27,16.60
2017,08,27,08,28,16.50
2017,08,27,08,29,16.40
2017,08,27,08,30,16.40
2017,08,27,08,31,16.30
2017,08,27,08,32,16.20
2017,08,27,08,33,16.20
2017,08,27,08,34,16.20
2017,08,27,08,35,16.10
2017,08,27,08,36,16.10
2017,08,27,08,37,16.10
2017,08,27,08,38,16.00
2017,08,27,08,39,16.00
2017,08,27,08,40,16.00
2017,08,27,08,41,15.90
2017,08,27,08,42,15.90
2017,08,27,08,43,15.90
2017,08,27,08,44,15.90
2017,08,27,08,45,15.90
2017,08,27,08,46,15.90
2017,08,27,08,47,15.90
2017,08,27,08,48,15.80
2017,08,27,08,49,15.80
2017,08,27,08,50,15.80
2017,08,27,08,51,15.80
2017,08,27,08,52,15.80
2017,08,27,08,53,15.80
2017,08,27,08,54,15.80
2017,08,27,08,55,15.80
2017,08,27,08,56,15.80
2017,08,27,08,57,15.80
2017,08,27,08,58,15.70
2017,08,27,08,59,15.70
2017,08,27,09,00,15.70
2017,08,27,09,01,15.70
2017,08,27,09,02,15.60
2017,08,27,09,03,15.60
2017,08,27,09,04,15.60
2017,08,27,09,05,15.50
2017,08,27,09,06,15.50
2017,08,27,09,07,15.50
2017,08,27,09,08,15.50
2017,08,27,09,09,15.40
2017,08,27,09,10,15.40
2017,08,27,09,11,15.40
2017,08,27,09,12,15.50
2017,08,27,09,13,15.50
2017,08,27,09,14,15.50
2017,08,27,09,15,15.50
2017,08,27,09,16,15.50
2017,08,27,09,17,15.40
2017,08,27,09,18,15.40
2017,08,27,09,19,15.40
2017,08,27,09,20,15.40
2017,08,27,09,21,15.30
2017,08,27,09,22,15.30
2017,08,27,09,23,15.30
2017,08,27,09,24,15.40
2017,08,27,09,25,15.40
2017,08,27,09,26,15.40
2017,08,27,09,27,15.50
2017,08,27,09,28,15.50
2017,08,27,09,29,15.50
2017,08,27,09,30,15.60
2017,08,27,09,31,15.60
2017,08,27,09,32,15.50
2017,08,27,09,33,15.60
2017,08,27,09,34,15.60
2017,08,27,09,35,15.60
2017,08,27,09,36,15.60
2017,08,27,09,37,15.70
2017,08,27,09,38,15.70
2017,08,27,09,39,15.70
2017,08,27,09,40,15.70
2017,08,27,09,41,15.80
2017,08,27,09,42,15.80
2017,08,27,09,43,15.90
2017,08,27,09,44,15.90
2017,08,27,09,45,16.00
2017,08,27,09,46,16.10
2017,08,27,09,47,16.10
2017,08,27,09,48,16.20
2017,08,27,09,49,16.20
2017,08,27,09,50,16.30
2017,08,27,09,51,16.30
2017,08,27,09,52,16.30
2017,08,27,09,53,16.30
2017,08,27,09,54,16.40
2017,08,27,09,55,16.40
2017,08,27,09,56,16.40
2017,08,27,09,57,16.40
2017,08,27,09,58,16.50
2017,08,27,09,59,16.50
2017,08,27,10,00,16.50
2017,08,27,10,01,16.60
2017,08,27,10,02,16.70
2017,08,27,10,03,16.70
2017,08,27,10,04,16.80
2017,08,27,10,05,16.80
2017,08,27,10,06,16.80
2017,08,27,10,07,16.80
2017,08,27,10,08,16.90
2017,08,27,10,09,16.90
2017,08,27,10,10,17.00
2017,08,27,10,11,17.00
2017,08,27,10,12,17.10
2017,08,27,10,13,17.10
2017,08,27,10,14,17.20
2017,08,27,10,15,17.20
2017,08,27,10,16,17.30
2017,08,27,10,17,17.30
2017,08,27,10,18,17.40
2017,08,27,10,19,17.40
2017,08,27,10,20,17.50
2017,08,27,10,21,17.50
2017,08,27,10,22,17.50
2017,08,27,10,23,17.50
2017,08,27,10,24,17.50
2017,08,27,10,25,17.40
2017,08,27,10,26,17.40
2017,08,27,10,27,17.40
2017,08,27,10,28,17.40
2017,08,27,10,29,17.30
2017,08,27,10,30,17.30
2017,08,27,10,31,17.30
2017,08,27,10,32,17.30
2017,08,27,10,33,17.20
2017,08,27,10,34,17.20
2017,08,27,10,35,17.10
2017,08,27,10,36,17.10
2017,08,27,10,37,17.20
2017,08,27,10,38,17.20
2017,08,27,10,39,17.20
2017,08,27,10,40,17.20
2017,08,27,10,41,17.20
2017,08,27,10,42,17.20
2017,08,27,10,43,17.10
2017,08,27,10,44,17.10
2017,08,27,10,45,17.10
2017,08,27,10,46,17.00
2017,08,27,10,47,17.10
2017,08,27,10,48,17.10
2017,08,27,10,49,17.20
2017,08,27,10,50,17.30
2017,08,27,10,51,17.30
2017,08,27,10,52,17.50
2017,08,27,10,53,17.50
2017,08,27,10,54,17.60
2017,08,27,10,55,17.60
2017,08,27,10,56,17.60
2017,08,27,10,57,17.60
2017,08,27,10,58,17.60
2017,08,27,10,59,17.60
2017,08,27,11,00,17.60
2017,08,27,11,01,17.70
2017,08,27,11,02,17.70
2017,08,27,11,03,17.70
2017,08,27,11,04,17.80
2017,08,27,11,05,17.80
2017,08,27,11,06,17.80
2017,08,27,11,07,17.90
2017,08,27,11,08,18.00
2017,08,27,11,09,18.00
2017,08,27,11,10,18.10
2017,08,27,11,11,18.20
2017,08,27,11,12,18.20
2017,08,27,11,13,18.30
2017,08,27,11,14,18.30
2017,08,27,11,15,18.30
2017,08,27,11,16,18.30
2017,08,27,11,17,18.30
2017,08,27,11,18,18.40
2017,08,27,11,19,18.40
2017,08,27,11,20,18.40
2017,08,27,11,21,18.40
2017,08,27,11,22,18.40
2017,08,27,11,23,18.50
2017,08,27,11,24,18.50
2017,08,27,11,25,18.50
2017,08,27,11,26,18.50
2017,08,27,11,27,18.50
2017,08,27,11,28,18.50
2017,08,27,11,29,18.50
2017,08,27,11,30,18.50
2017,08,27,11,31,18.50
2017,08,27,11,32,18.50
2017,08,27,11,33,18.50
2017,08,27,11,34,18.60
2017,08,27,11,35,18.70
2017,08,27,11,36,18.70
2017,08,27,11,37,18.80
2017,08,27,11,38,18.80
2017,08,27,11,39,18.80
2017,08,27,11,40,18.90
2017,08,27,11,41,18.90
2017,08,27,11,42,18.90
2017,08,27,11,43,18.90
2017,08,27,11,44,19.00
2017,08,27,11,45,19.10
2017,08,27,11,46,19.10
2017,08,27,11,47,19.20
2017,08,27,11,48,19.30
2017,08,27,11,49,19.40
2017,08,27,11,50,19.50
2017,08,27,11,51,19.50
2017,08,27,11,52,19.60
2017,08,27,11,53,19.70
2017,08,27,11,54,19.70
2017,08,27,11,55,19.80
2017,08,27,11,56,19.80
2017,08,27,11,57,19.90
2017,08,27,11,58,19.90
2017,08,27,11,59,19.90
2017,08,27,12,00,20.00
2017,08,27,12,01,20.00
2017,08,27,12,02,20.10
2017,08,27,12,03,20.10
2017,08,27,12,04,20.10
2017,08,27,12,05,20.10
2017,08,27,12,06,20.10
2017,08,27,12,07,20.00
2017,08,27,12,08,20.00
2017,08,27,12,09,19.90
2017,08,27,12,10,19.90
2017,08,27,12,11,19.80
2017,08,27,12,12,19.80
2017,08,27,12,13,19.80
2017,08,27,12,14,19.80
2017,08,27,12,15,19.80
2017,08,27,12,16,19.90
2017,08,27,12,17,20.00
2017,08,27,12,18,20.00
2017,08,27,12,19,20.10
2017,08,27,12,20,20.20
2017,08,27,12,21,20.30
2017,08,27,12,22,20.50
2017,08,27,12,23,20.60
2017,08,27,12,24,20.70
2017,08,27,12,25,20.70
2017,08,27,12,26,20.80
2017,08,27,12,27,20.90
2017,08,27,12,28,20.90
2017,08,27,12,29,20.80
2017,08,27,12,30,20.80
2017,08,27,12,31,20.80
2017,08,27,12,32,20.90
2017,08,27,12,33,20.90
2017,08,27,12,34,20.90
2017,08,27,12,35,20.90
2017,08,27,12,36,20.90
2017,08,27,12,37,20.80
2017,08,27,12,38,20.70
2017,08,27,12,39,20.70
2017,08,27,12,40,20.70
2017,08,27,12,41,20.70
2017,08,27,12,42,20.70
2017,08,27,12,43,20.80
2017,08,27,12,44,20.80
2017,08,27,12,45,20.90
2017,08,27,12,46,20.90
2017,08,27,12,47,20.90
2017,08,27,12,48,20.90
2017,08,27,12,49,20.90
2017,08,27,12,50,20.90
2017,08,27,12,51,20.80
2017,08,27,12,52,20.80
2017,08,27,12,53,20.80
2017,08,27,12,54,20.80
2017,08,27,12,55,20.70
2017,08,27,12,56,20.70
2017,08,27,12,57,20.70
2017,08,27,12,58,20.70
2017,08,27,12,59,20.70
2017,08,27,13,00,20.70
2017,08,27,13,01,20.70
2017,08,27,13,02,20.70
2017,08,27,13,03,20.80
2017,08,27,13,04,20.90
2017,08,27,13,05,21.00
2017,08,27,13,06,21.10
2017,08,27,13,07,21.20
2017,08,27,13,08,21.30
2017,08,27,13,09,21.40
2017,08,27,13,10,21.50
2017,08,27,13,11,21.60
2017,08,27,13,12,21.70
2017,08,27,13,13,21.70
2017,08,27,13,14,21.70
2017,08,27,13,15,21.80
2017,08,27,13,16,21.80
2017,08,27,13,17,21.80
2017,08,27,13,18,21.80
2017,08,27,13,19,21.80
2017,08,27,13,20,21.80
2017,08,27,13,21,21.80
2017,08,27,13,22,21.70
2017,08,27,13,23,21.70
2017,08,27,13,24,21.70
2017,08,27,13,25,21.70
2017,08,27,13,26,21.70
2017,08,27,13,27,21.70
2017,08,27,13,28,21.70
2017,08,27,13,29,21.70
2017,08,27,13,30,21.80
2017,08,27,13,31,21.80
2017,08,27,13,32,21.90
2017,08,27,13,33,21.90
2017,08,27,13,34,21.90
2017,08,27,13,35,21.90
2017,08,27,13,36,22.00
2017,08,27,13,37,22.10
2017,08,27,13,38,22.10
2017,08,27,13,39,22.20
2017,08,27,13,40,22.30
2017,08,27,13,41,22.40
2017,08,27,13,42,22.60
2017,08,27,13,43,22.60
2017,08,27,13,44,22.70
2017,08,27,13,45,22.80
2017,08,27,13,46,22.80
2017,08,27,13,47,22.80
2017,08,27,13,48,22.80
2017,08,27,13,49,22.80
2017,08,27,13,50,22.80
2017,08,27,13,51,22.80
2017,08,27,13,52,22.80
2017,08,27,13,53,22.90
2017,08,27,13,54,23.00
2017,08,27,13,55,23.00
2017,08,27,13,56,23.10
2017,08,27,13,57,23.10
2017,08,27,13,58,23.10
2017,08,27,13,59,23.10
2017,08,27,14,00,23.20
2017,08,27,14,01,23.20
2017,08,27,14,02,23.30
2017,08,27,14,03,23.30
2017,08,27,14,04,23.20
2017,08,27,14,05,23.20
2017,08,27,14,06,23.20
2017,08,27,14,07,23.20
2017,08,27,14,08,23.20
2017,08,27,14,09,23.10
2017,08,27,14,10,23.10
2017,08,27,14,11,23.10
2017,08,27,14,12,23.00
2017,08,27,14,13,23.00
2017,08,27,14,14,23.10
2017,08,27,14,15,23.10
2017,08,27,14,16,23.20
2017,08,27,14,17,23.30
2017,08,27,14,18,23.40
2017,08,27,14,19,23.50
2017,08,27,14,20,23.60
2017,08,27,14,21,23.60
2017,08,27,14,22,23.60
2017,08,27,14,23,23.60
2017,08,27,14,24,23.60
2017,08,27,14,25,23.50
2017,08,27,14,26,23.40
2017,08,27,14,27,23.40
2017,08,27,14,28,23.30
2017,08,27,14,29,23.30
2017,08,27,14,30,23.30
2017,08,27,14,31,23.30
2017,08,27,14,32,23.30
2017,08,27,14,33,23.30
2017,08,27,14,34,23.20
2017,08,27,14,35,23.20
2017,08,27,14,36,23.10
2017,08,27,14,37,23.00
2017,08,27,14,38,23.00
2017,08,27,14,39,22.90
2017,08,27,14,40,22.80
2017,08,27,14,41,22.70
2017,08,27,14,42,22.70
2017,08,27,14,43,22.70
2017,08,27,14,44,22.70
2017,08,27,14,45,22.70
2017,08,27,14,46,22.70
2017,08,27,14,47,22.70
2017,08,27,14,48,22.70
2017,08,27,14,49,22.70
2017,08,27,14,50,22.70
2017,08,27,14,51,22.80
2017,08,27,14,52,22.80
2017,08,27,14,53,22.80
2017,08,27,14,54,22.80
2017,08,27,14,55,22.80
2017,08,27,14,56,22.80
2017,08,27,14,57,22.80
2017,08,27,14,58,22.70
2017,08,27,14,59,22.70
2017,08,27,15,00,22.70
2017,08,27,15,01,22.80
2017,08,27,15,02,22.90
2017,08,27,15,03,23.00
2017,08,27,15,04,23.10
2017,08,27,15,05,23.20
2017,08,27,15,06,23.40
2017,08,27,15,07,23.50
2017,08,27,15,08,23.60
2017,08,27,15,09,23.70
2017,08,27,15,10,23.80
2017,08,27,15,11,23.90
2017,08,27,15,12,24.00
2017,08,27,15,13,24.00
2017,08,27,15,14,24.10
2017,08,27,15,15,24.10
2017,08,27,15,16,24.10
2017,08,27,15,17,24.00
2017,08,27,15,18,24.00
2017,08,27,15,19,23.90
2017,08,27,15,20,24.00
2017,08,27,15,21,24.00
2017,08,27,15,22,24.10
2017,08,27,15,23,24.10
2017,08,27,15,24,24.10
2017,08,27,15,25,24.00
2017,08,27,15,26,24.00
2017,08,27,15,27,23.90
2017,08,27,15,28,23.90
2017,08,27,15,29,24.00
2017,08,27,15,30,24.00
2017,08,27,15,31,24.10
2017,08,27,15,32,24.10
2017,08,27,15,33,24.20
2017,08,27,15,34,24.30
2017,08,27,15,35,24.40
2017,08,27,15,36,24.50
2017,08,27,15,37,24.60
2017,08,27,15,38,24.70
2017,08,27,15,39,24.80
2017,08,27,15,40,24.90
2017,08,27,15,41,24.90
2017,08,27,15,42,25.00
2017,08,27,15,43,25.10
2017,08,27,15,44,25.10
2017,08,27,15,45,25.10
2017,08,27,15,46,25.10
2017,08,27,15,47,25.10
2017,08,27,15,48,25.10
2017,08,27,15,49,25.10
2017,08,27,15,50,25.10
2017,08,27,15,51,25.10
2017,08,27,15,52,25.10
2017,08,27,15,53,25.00
2017,08,27,15,54,25.00
2017,08,27,15,55,24.90
2017,08,27,15,56,24.90
2017,08,27,15,57,24.90
2017,08,27,15,58,24.90
2017,08,27,15,59,24.90
2017,08,27,16,00,24.90
2017,08,27,16,01,25.00
2017,08,27,16,02,25.10
2017,08,27,16,03,25.10
2017,08,27,16,04,25.20
2017,08,27,16,05,25.20
2017,08,27,16,06,25.20
2017,08,27,16,07,25.20
2017,08,27,16,08,25.20
2017,08,27,16,09,25.10
2017,08,27,16,10,25.10
2017,08,27,16,11,25.10
2017,08,27,16,12,25.20
2017,08,27,16,13,25.20
2017,08,27,16,14,25.30
2017,08,27,16,15,25.30
2017,08,27,16,16,25.40
2017,08,27,16,17,25.40
2017,08,27,16,18,25.50
2017,08,27,16,19,25.50
2017,08,27,16,20,25.50
2017,08,27,16,21,25.40
2017,08,27,16,22,25.40
2017,08,27,16,23,25.40
2017,08,27,16,24,25.40
2017,08,27,16,25,25.30
2017,08,27,16,26,25.30
2017,08,27,16,27,25.30
2017,08,27,16,28,25.30
2017,08,27,16,29,25.30
2017,08,27,16,30,25.30
2017,08,27,16,31,25.40
2017,08,27,16,32,25.40
2017,08,27,16,33,25.50
2017,08,27,16,34,25.50
2017,08,27,16,35,25.60
2017,08,27,16,36,25.60
2017,08,27,16,37,25.60
2017,08,27,16,38,25.60
2017,08,27,16,39,25.60
2017,08,27,16,40,25.60
2017,08,27,16,41,25.60
2017,08,27,16,42,25.60
2017,08,27,16,43,25.60
2017,08,27,16,44,25.60
2017,08,27,16,45,25.50
2017,08,27,16,46,25.50
2017,08,27,16,47,25.40
2017,08,27,16,48,25.40
2017,08,27,16,49,25.40
2017,08,27,16,50,25.40
2017,08,27,16,51,25.40
2017,08,27,16,52,25.40
2017,08,27,16,53,25.40
2017,08,27,16,54,25.40
2017,08,27,16,55,25.30
2017,08,27,16,56,25.30
2017,08,27,16,57,25.30
2017,08,27,16,58,25.40
2017,08,27,16,59,25.40
2017,08,27,17,00,25.50
2017,08,27,17,01,25.50
2017,08,27,17,02,25.50
2017,08,27,17,03,25.50
2017,08,27,17,04,25.50
2017,08,27,17,05,25.40
2017,08,27,17,06,25.40
2017,08,27,17,07,25.40
2017,08,27,17,08,25.40
2017,08,27,17,09,25.40
2017,08,27,17,10,25.40
2017,08,27,17,11,25.30
2017,08,27,17,12,25.20
2017,08,27,17,13,25.00
2017,08,27,17,14,24.90
2017,08,27,17,15,24.80
2017,08,27,17,16,24.80
2017,08,27,17,17,24.70
2017,08,27,17,18,24.70
2017,08,27,17,19,24.60